FW0714 Weather Reports


time (UTC)temp
F
wind
direction
speed
knots
gust
knots
rain 1hr
in
rain 24hr
in
rain mn
in
humidity
%
barometer
mb
20260506131710 52 72 3.5 9.6 0.00 0.04 0.04 72 1009.4
20260506131205 52 55 3.5 10.4 0.00 0.04 0.04 71 1009.4
20260506130713 52 17 4.3 10.4 0.00 0.04 0.04 71 1009.4
20260506130207 52 66 3.5 10.4 0.00 0.04 0.04 71 1009.5
20260506125713 52 93 5.2 10.4 0.00 0.04 0.04 71 1009.5
20260506125212 51 61 5.2 10.4 0.00 0.04 0.04 71 1009.4
20260506124716 51 56 5.2 9.6 0.00 0.04 0.04 72 1009.4
20260506124206 51 90 3.5 12.2 0.00 0.04 0.04 74 1009.3
20260506123208 51 78 3.5 12.2 0.00 0.04 0.04 74 1009.4
20260506122716 51 85 5.2 11.3 0.00 0.04 0.04 73 1009.3
20260506122211 51 0 6.1 10.4 0.00 0.04 0.04 74 1009.3
20260506121206 51 39 4.3 11.3 0.00 0.04 0.04 76 1009.3
20260506120209 51 61 2.6 11.3 0.00 0.04 0.04 76 1009.3
20260506115219 51 58 4.3 9.6 0.00 0.04 0.04 76 1009.1
20260506114714 51 96 6.1 8.7 0.00 0.04 0.04 76 1009.0
20260506114212 51 59 3.5 8.7 0.00 0.04 0.04 77 1009.0
20260506113719 51 41 2.6 8.7 0.00 0.04 0.04 76 1009.0
20260506113211 51 55 4.3 8.7 0.00 0.04 0.04 76 1008.9
20260506112712 51 24 3.5 8.7 0.00 0.04 0.04 76 1008.9
20260506112208 51 39 3.5 7.8 0.00 0.04 0.04 76 1008.9
20260506111709 51 63 5.2 7.8 0.00 0.04 0.04 75 1008.9
20260506111215 51 85 4.3 7.8 0.00 0.04 0.04 75 1008.8
20260506110717 51 100 3.5 10.4 0.00 0.04 0.04 75 1008.8
20260506110207 51 47 4.3 12.2 0.00 0.04 0.04 74 1008.7
20260506105712 51 80 2.6 12.2 0.00 0.04 0.04 73 1008.7
20260506105219 51 0 4.3 12.2 0.00 0.04 0.04 74 1008.8
20260506104717 51 14 5.2 9.6 0.00 0.04 0.04 74 1008.8
20260506103714 51 103 3.5 5.2 0.00 0.04 0.04 76 1008.8
20260506103209 51 47 0.9 5.2 0.00 0.04 0.04 77 1008.7
20260506102711 51 51 1.7 6.1 0.00 0.04 0.04 77 1008.7
20260506101709 50 17 3.5 6.1 0.00 0.04 0.04 76 1008.6
20260506100710 50 58 3.5 7.8 0.00 0.04 0.04 76 1008.6
20260506100239 50 51 3.5 7.8 0.00 0.04 0.04 77 1008.6
20260506095714 50 14 2.6 7.8 0.00 0.04 0.04 78 1008.5
20260506095211 50 23 1.7 7.8 0.00 0.04 0.04 78 1008.5
20260506094707 50 72 1.7 7.8 0.00 0.04 0.04 77 1008.6
20260506094210 50 42 1.7 9.6 0.00 0.04 0.04 77 1008.5
20260506093217 50 38 4.3 9.6 0.00 0.04 0.04 76 1008.5
20260506092705 50 42 4.3 10.4 0.00 0.04 0.04 75 1008.4
20260506092207 50 45 5.2 10.4 0.00 0.04 0.04 76 1008.4
20260506091709 50 79 2.6 10.4 0.00 0.04 0.04 76 1008.4
20260506091219 50 68 3.5 9.6 0.00 0.04 0.04 77 1008.3
20260506090707 50 62 2.6 9.6 0.00 0.04 0.04 76 1008.3
20260506090215 50 80 3.5 9.6 0.00 0.04 0.04 77 1008.3
20260506085709 50 71 3.5 7.8 0.00 0.04 0.04 78 1008.2
20260506084710 50 79 3.5 8.7 0.00 0.04 0.04 79 1008.2
20260506084217 50 80 3.5 8.7 0.00 0.04 0.04 80 1008.2
20260506082707 50 355 1.7 9.6 0.00 0.04 0.04 80 1008.1
20260506081208 50 79 2.6 7.8 0.00 0.04 0.04 82 1007.9
20260506080722 50 37 3.5 10.4 0.00 0.04 0.04 82 1007.9
20260506080206 50 69 2.6 10.4 0.00 0.04 0.04 83 1007.9
20260506073209 49 58 3.5 6.1 0.00 0.04 0.04 84 1007.8
20260506072714 49 48 2.6 7.8 0.00 0.04 0.04 84 1007.8
20260506072242 49 42 2.6 7.8 0.00 0.04 0.04 84 1007.9
20260506071706 49 80 1.7 7.8 0.00 0.04 0.04 85 1007.8
20260506071217 49 35 2.6 7.8 0.00 0.04 0.04 85 1007.8
20260506070717 49 55 4.3 7.8 0.00 0.04 0.04 85 1007.8
20260506070219 49 45 3.5 7.8 0.00 0.04 0.04 85 1007.7
20260506062214 48 24 0.9 4.3 0.02 0.04 0.04 87 1007.6
20260506061712 48 44 0.9 2.6 0.02 0.04 0.04 87 1007.6
20260506061208 48 48 0.0 4.3 0.02 0.04 0.04 87 1007.6
20260506060718 48 47 0.0 4.3 0.02 0.04 0.04 87 1007.5
20260506060218 48 69 0.9 4.3 0.02 0.04 0.04 87 1007.6
20260506050710 49 23 1.7 6.1 0.02 0.02 0.02 87 1007.6
20260506050207 49 42 3.5 6.1 0.02 0.02 0.02 87 1007.6
20260506044207 49 83 3.5 7.8 0.01 0.01 0.01 87 1007.5
20260506043705 49 72 2.6 5.2 0.01 0.01 0.01 87 1007.4
20260506043216 49 71 2.6 5.2 0.01 0.01 0.01 86 1007.4
20260506042713 49 47 1.7 5.2 0.00 0.00 0.00 86 1007.4
20260506041716 50 6 0.9 5.2 0.00 0.00 0.00 86 1007.3
20260506041217 50 65 1.7 5.2 0.00 0.00 0.00 86 1007.3
20260506040705 50 48 1.7 5.2 0.00 0.00 0.00 86 1007.4
20260506040207 50 0 2.6 7.8 0.00 0.00 0.00 86 1007.4
20260506035707 50 49 1.7 8.7 0.00 0.00 0.00 85 1007.3
20260506034711 50 48 1.7 8.7 0.00 0.00 0.00 85 1007.4
20260506034206 50 21 2.6 6.1 0.00 0.00 0.00 86 1007.4
20260506033714 50 0 2.6 6.1 0.00 0.00 0.00 86 1007.4
20260506032705 50 31 2.6 7.8 0.00 0.00 0.00 86 1007.5
20260506032217 50 37 1.7 7.8 0.00 0.00 0.00 86 1007.5
20260506031709 50 20 0.9 6.1 0.00 0.00 0.00 86 1007.6
20260506031218 50 10 1.7 8.7 0.00 0.00 0.00 86 1007.7
20260506030719 50 75 0.0 8.7 0.00 0.00 0.00 86 1007.6
20260506030208 50 23 1.7 8.7 0.00 0.00 0.00 86 1007.6
20260506025718 50 59 1.7 8.7 0.00 0.00 0.00 86 1007.6
20260506025206 50 27 2.6 8.7 0.00 0.00 0.00 86 1007.7
20260506024712 50 34 1.7 8.7 0.00 0.00 0.00 86 1007.7
20260506024218 50 58 2.6 7.8 0.00 0.00 0.00 86 1007.7
20260506023717 50 307 1.7 7.8 0.00 0.00 0.00 86 1007.7
20260506023215 50 21 1.7 7.8 0.00 0.00 0.00 86 1007.7
20260506022716 50 25 1.7 6.1 0.00 0.00 0.00 86 1007.7
20260506022218 50 1 2.6 7.8 0.00 0.00 0.00 86 1007.8
20260506021706 50 51 1.7 7.8 0.00 0.00 0.00 86 1007.8
20260506021217 50 3 0.9 7.8 0.00 0.00 0.00 86 1007.9
20260506020712 50 41 2.6 5.2 0.00 0.00 0.00 86 1008.0
20260506020215 50 11 2.6 5.2 0.00 0.00 0.00 85 1008.0
20260506015716 50 79 1.7 7.8 0.00 0.00 0.00 85 1008.0
20260506015207 50 21 1.7 7.8 0.00 0.00 0.00 85 1008.1
20260506014707 50 13 1.7 7.8 0.00 0.00 0.00 85 1008.1
20260506014220 50 0 1.7 5.2 0.00 0.00 0.00 85 1008.1
20260506013710 50 51 0.9 6.1 0.00 0.00 0.00 85 1008.2
20260506012217 50 38 2.6 6.1 0.00 0.00 0.00 84 1008.3
20260506011712 50 7 0.9 6.1 0.00 0.00 0.00 84 1008.3
20260506010209 50 31 1.7 9.6 0.00 0.00 0.00 84 1008.3
20260506005709 50 51 0.9 9.6 0.00 0.00 0.00 84 1008.3
20260506005207 50 48 2.6 6.1 0.00 0.00 0.00 84 1008.3
20260506004715 50 0 1.7 6.1 0.00 0.00 0.00 84 1008.4
20260506004206 50 65 0.9 6.1 0.00 0.00 0.00 84 1008.4
20260506003217 50 97 2.6 5.2 0.00 0.00 0.00 84 1008.5
20260506002720 50 66 2.6 7.8 0.00 0.00 0.00 84 1008.6
20260506002219 50 41 1.7 7.8 0.00 0.00 0.00 84 1008.6
20260506001715 50 49 1.7 7.8 0.00 0.00 0.00 84 1008.6
20260506001217 50 42 0.9 4.3 0.00 0.00 0.00 83 1008.6
20260506000710 50 54 1.7 4.3 0.00 0.00 0.00 83 1008.7
20260506000219 50 44 0.9 6.1 0.00 0.00 0.00 83 1008.8
20260505235708 50 56 0.9 6.1 0.00 0.00 0.00 83 1008.9
20260505235208 50 52 2.6 6.1 0.00 0.00 0.00 83 1008.9
20260505234707 50 16 1.7 6.1 0.00 0.00 0.00 83 1009.0
20260505234209 50 357 0.9 6.1 0.00 0.00 0.00 83 1009.1
20260505233711 50 68 1.7 6.1 0.00 0.00 0.00 82 1009.1
20260505233211 50 10 2.6 5.2 0.00 0.00 0.00 82 1009.1
20260505232712 50 314 1.7 5.2 0.00 0.00 0.00 82 1009.1
20260505231716 50 35 1.7 6.1 0.00 0.00 0.00 82 1009.1
20260505231217 50 0 2.6 8.7 0.00 0.00 0.00 81 1009.1
20260505230712 50 51 1.7 8.7 0.00 0.00 0.00 81 1009.1
20260505230218 50 55 2.6 8.7 0.00 0.00 0.00 81 1009.1
20260505225710 50 73 3.5 8.7 0.00 0.00 0.00 81 1009.2
20260505225215 50 16 2.6 8.7 0.00 0.00 0.00 81 1009.1
20260505224710 50 0 2.6 6.1 0.00 0.00 0.00 81 1009.3
20260505224211 50 0 3.5 5.2 0.00 0.00 0.00 81 1009.3
20260505223714 50 48 1.7 6.1 0.00 0.00 0.00 81 1009.3
20260505223212 50 65 1.7 7.8 0.00 0.00 0.00 81 1009.4
20260505222709 50 21 1.7 7.8 0.00 0.00 0.00 81 1009.3
20260505222217 50 63 2.6 7.8 0.00 0.00 0.00 81 1009.4
20260505221706 50 0 2.6 8.7 0.00 0.00 0.00 82 1009.4
20260505221211 50 39 1.7 8.7 0.00 0.00 0.00 82 1009.4
20260505220716 50 38 3.5 8.7 0.00 0.00 0.00 82 1009.3
20260505220209 50 35 2.6 9.6 0.00 0.00 0.00 82 1009.3
20260505215718 50 55 2.6 9.6 0.00 0.00 0.00 82 1009.4
20260505215209 50 44 1.7 7.8 0.00 0.00 0.00 82 1009.4
20260505214710 50 23 1.7 7.8 0.00 0.00 0.00 82 1009.4
20260505214213 50 82 1.7 7.8 0.00 0.00 0.00 82 1009.5
20260505213718 50 38 1.7 7.8 0.00 0.00 0.00 82 1009.6
20260505213215 50 23 2.6 6.1 0.00 0.00 0.00 82 1009.6
20260505212705 50 37 2.6 6.1 0.00 0.00 0.00 82 1009.6
20260505212212 50 303 1.7 6.1 0.00 0.00 0.00 82 1009.7
20260505211715 50 51 1.7 8.7 0.00 0.00 0.00 82 1009.7
20260505210713 50 93 1.7 7.8 0.00 0.00 0.00 82 1009.7
20260505210209 50 11 1.7 8.7 0.00 0.00 0.00 82 1009.7
20260505205718 50 0 1.7 8.7 0.00 0.00 0.00 82 1009.8
20260505205209 50 3 1.7 8.7 0.00 0.00 0.00 83 1009.8
20260505204708 50 10 2.6 6.1 0.00 0.00 0.00 83 1009.8
20260505204210 50 11 1.7 6.1 0.00 0.00 0.00 83 1009.8
20260505203711 50 30 1.7 6.1 0.00 0.00 0.00 83 1009.9
20260505203211 50 72 2.6 6.1 0.00 0.00 0.00 83 1009.9
20260505202711 50 54 1.7 10.4 0.00 0.00 0.00 83 1009.9
20260505202205 50 51 2.6 10.4 0.00 0.00 0.00 83 1009.9
20260505201709 50 54 2.6 10.4 0.00 0.00 0.00 83 1009.8
20260505201217 51 0 3.5 6.1 0.00 0.00 0.00 82 1009.9
20260505200711 51 13 2.6 6.1 0.00 0.00 0.00 82 1009.8
20260505200217 51 79 1.7 6.1 0.00 0.00 0.00 82 1009.9
20260505195719 51 8 1.7 8.7 0.00 0.00 0.00 82 1009.9
20260505195206 51 131 1.7 11.3 0.00 0.00 0.00 82 1009.9
20260505194720 51 13 2.6 11.3 0.00 0.00 0.00 82 1009.9
20260505192711 51 21 1.7 7.8 0.00 0.00 0.00 82 1009.8
20260505191720 51 62 2.6 11.3 0.00 0.00 0.00 81 1009.7
20260505191218 51 48 1.7 11.3 0.00 0.00 0.00 82 1009.7
20260505190218 52 18 2.6 9.6 0.00 0.00 0.00 82 1009.5
20260505185715 52 16 2.6 7.8 0.00 0.00 0.00 82 1009.5
20260505185210 52 3 2.6 7.8 0.00 0.00 0.00 81 1009.5
20260505184712 52 55 3.5 8.7 0.00 0.00 0.00 81 1009.5
20260505184217 52 0 2.6 9.6 0.00 0.00 0.00 81 1009.4
20260505183711 52 61 2.6 9.6 0.00 0.00 0.00 81 1009.4
20260505183219 53 252 2.6 9.6 0.00 0.00 0.00 81 1009.4
20260505182705 53 0 3.5 6.1 0.00 0.00 0.00 81 1009.4
20260505182220 53 4 2.6 8.7 0.00 0.00 0.00 80 1009.4
20260505181719 53 25 0.9 8.7 0.00 0.00 0.00 80 1009.5
20260505180209 53 48 1.7 7.8 0.00 0.00 0.00 79 1009.4
20260505175705 53 54 2.6 7.8 0.00 0.00 0.00 79 1009.5
20260505175206 54 42 0.9 7.8 0.00 0.00 0.00 79 1009.4
20260505174705 54 10 2.6 7.8 0.00 0.00 0.00 79 1009.4
20260505174209 54 28 1.7 6.1 0.00 0.00 0.00 79 1009.4
20260505173709 54 321 1.7 7.8 0.00 0.00 0.00 78 1009.4
20260505173206 54 75 1.7 7.8 0.00 0.00 0.00 78 1009.4
20260505172713 54 28 0.9 7.8 0.00 0.00 0.00 77 1009.5
20260505172218 54 51 1.7 6.1 0.00 0.00 0.00 77 1009.4
20260505171717 54 45 2.6 5.2 0.00 0.00 0.00 76 1009.5
20260505171209 54 0 0.9 6.1 0.00 0.00 0.00 76 1009.5
20260505170714 54 14 1.7 6.1 0.00 0.00 0.00 75 1009.5
20260505170217 54 227 1.7 6.1 0.00 0.00 0.00 75 1009.6
20260505165707 54 298 1.7 6.1 0.00 0.00 0.00 75 1009.6
20260505164714 54 39 2.6 6.1 0.00 0.00 0.00 75 1009.6
20260505164218 54 289 1.7 8.7 0.00 0.00 0.00 75 1009.6
20260505162220 55 324 1.7 9.6 0.00 0.00 0.00 76 1009.5
20260505161714 55 52 2.6 9.6 0.00 0.00 0.00 75 1009.6
20260505161216 55 44 2.6 9.6 0.00 0.00 0.00 76 1009.6
20260505160711 55 358 1.7 7.8 0.00 0.00 0.00 76 1009.6
20260505160209 55 47 1.7 7.8 0.00 0.00 0.00 76 1009.6
20260505153207 55 63 1.7 6.1 0.00 0.00 0.00 78 1009.8
20260505152732 55 276 1.7 6.1 0.00 0.00 0.00 78 1009.8
20260505151724 55 49 1.7 7.8 0.00 0.00 0.00 77 1009.8
20260505151212 55 55 4.3 7.8 0.00 0.00 0.00 77 1009.9
20260505150710 55 52 1.7 7.8 0.00 0.00 0.00 78 1009.9
20260505150210 55 13 3.5 7.8 0.00 0.00 0.00 79 1009.8
20260505140217 54 62 1.7 4.3 0.00 0.00 0.00 80 1010.2